Dewpoint
71 70 69 65 56 59 53 53 59 57 55 57 55 56 58 61 58 53 65 67 68 68 72 73 75 74 74 75 75 75 75 74 74 75 74 74 74 73 73 74 73 72 73 73 73 74 74 74 75
70 68 66 65 59 53 54 58 58 58 57 56 60 60 60 60 64 65 66 68 67 70 72 74 76 75 75 75 75 75 74 74 75 74 74 74 74 73 72 73 74 73 73 73 73 73 73 74 74
69 66 64 61 58 53 54 58 59 60 58 59 61 63 61 62 64 64 68 67 68 72 73 74 75 75 75 75 75 75 74 75 75 74 74 74 74 74 73 73 73 73 73 73 73 73 73 73 74
65 66 65 58 55 56 56 59 59 59 61 60 61 60 62 65 64 67 68 68 70 72 72 74 75 75 74 74 75 75 74 74 74 74 74 74 73 73 73 73 73 73 72 72 73 73 73 73 73
67 66 59 57 57 55 57 60 62 60 61 59 60 60 62 65 67 68 68 69 70 71 72 73 76 75 75 75 75 75 74 74 74 74 74 73 73 74 73 73 73 73 72 72 72 72 72 73 73
64 64 57 55 55 56 57 61 62 61 61 60 60 61 62 66 67 68 69 70 70 72 73 74 75 75 75 75 75 74 74 74 75 74 74 74 74 74 74 73 73 73 72 72 72 72 73 72 73
62 61 57 56 56 57 59 62 61 60 60 59 61 60 64 65 68 69 69 71 71 73 73 74 74 74 75 75 75 75 74 75 74 74 74 74 73 73 74 73 73 72 72 72 72 72 72 72 72
63 62 56 57 58 56 60 62 63 60 60 61 61 60 61 65 67 68 70 71 72 73 73 73 73 73 73 73 75 75 75 75 74 74 74 73 73 73 73 74 74 72 72 72 72 72 72 72 73
62 58 56 56 55 56 61 62 63 64 61 60 62 60 64 65 67 68 69 70 71 72 72 72 73 73 73 73 72 75 75 74 74 73 74 74 71 71 71 73 73 73 72 72 72 72 72 72 73
60 56 56 57 56 59 61 63 62 65 60 60 61 62 64 65 66 66 67 67 69 70 71 72 72 72 72 73 73 73 73 73 73 73 71 71 71 71 71 72 72 73 73 73 72 72 72 71 70
59 56 57 58 60 60 62 63 64 63 60 61 59 61 63 64 65 65 66 67 68 70 71 72 72 72 72 73 73 73 73 72 72 72 71 70 70 72 72 72 71 71 72 70 70 70 70 69 69
52 53 57 56 61 61 61 61 62 63 64 65 60 62 62 63 63 64 64 66 68 68 70 71 71 72 71 72 72 72 72 71 71 70 71 70 70 70 70 70 70 70 70 69 69 69 69 69 69
49 49 49 51 53 62 62 58 59 60 65 66 61 61 61 62 63 63 64 65 67 66 67 70 71 70 70 72 71 72 71 72 71 71 70 69 69 69 70 70 69 69 70 69 69 69 69 69 68
48 47 47 44 61 61 59 60 58 62 66 66 62 60 61 60 61 62 63 65 67 66 65 68 70 70 70 71 71 71 70 71 70 70 70 68 69 69 70 69 68 69 69 69 69 68 69 68 67
46 44 36 59 61 60 58 56 59 63 64 65 61 60 60 60 60 61 62 64 66 65 65 67 69 69 69 70 70 70 69 71 70 69 69 70 71 70 69 69 67 67 69 69 69 69 69 68 67
33 32 28 57 58 59 57 56 62 64 64 62 61 60 60 61 59 60 60 63 65 64 65 67 68 68 68 69 69 69 69 70 69 68 68 70 71 71 69 69 69 68 69 68 67 69 68 66 66
31 31 32 30 58 59 58 57 61 64 63 62 60 59 60 60 60 59 59 60 63 64 65 66 67 67 67 68 69 68 69 70 70 69 69 70 72 71 70 69 69 70 69 67 66 68 66 65 65
30 30 28 27 53 56 57 57 61 63 62 61 60 59 59 60 60 57 57 59 63 64 65 66 67 67 68 69 68 67 68 70 71 70 70 71 72 71 70 69 69 70 69 69 65 65 66 65 65
32 29 27 28 28 26 55 56 59 62 62 61 60 59 58 59 60 56 58 60 62 63 65 66 67 66 68 67 67 67 68 69 71 71 71 72 72 71 70 70 71 69 65 68 65 65 63 63 64
33 30 29 28 39 43 57 56 59 61 61 62 61 60 58 58 59 56 59 60 61 63 64 66 66 66 67 67 68 67 68 69 70 71 71 72 71 70 70 70 70 69 65 68 68 64 62 63 63
33 30 29 28 36 55 54 56 58 59 61 62 63 62 60 58 58 56 59 60 60 62 64 66 65 66 67 67 68 68 69 69 69 69 71 72 71 69 70 70 71 69 67 68 66 64 61 60 63
30 31 29 25 20 17 48 47 54 55 57 59 62 62 61 58 58 58 58 60 60 60 63 65 66 66 67 67 67 67 67 67 67 68 69 71 73 70 71 71 71 70 70 68 67 67 63 61 61
30 31 26 23 19 18 24 26 43 54 54 58 61 61 62 61 58 59 56 60 60 60 61 63 66 66 67 67 66 67 67 67 67 68 68 70 72 71 72 71 71 70 69 69 69 69 66 64 63
28 27 20 20 18 15 16 16 24 50 53 54 60 62 62 61 61 59 57 60 60 61 62 64 65 66 67 67 67 67 66 66 67 67 68 69 70 72 72 72 71 71 70 69 69 69 69 68 67
20 19 16 16 15 14 18 16 18 46 52 53 56 60 62 60 61 59 58 58 60 60 62 64 65 65 67 67 66 66 67 66 67 68 68 69 70 71 71 71 71 70 70 70 69 70 69 69 69
22 18 17 13 15 16 20 15 18 24 31 49 54 58 61 61 62 60 59 56 59 61 61 65 65 65 66 67 67 66 66 66 67 68 68 69 70 70 71 72 72 71 71 71 70 70 70 70 69
20 22 24 18 22 17 18 20 24 38 44 49 52 56 61 62 60 61 61 58 58 60 61 64 66 65 66 66 66 67 66 66 66 68 69 69 69 70 71 73 72 71 71 71 71 70 70 70 70
17 17 17 19 17 16 19 20 29 38 43 50 53 53 58 61 60 60 61 59 60 60 61 62 65 65 66 66 66 66 68 68 67 67 69 70 69 69 70 73 71 71 71 71 71 70 70 70 70
19 18 18 19 21 18 18 23 30 40 44 52 55 56 55 59 60 61 61 62 61 60 60 61 63 64 65 65 66 65 66 69 69 67 67 68 70 69 70 72 72 70 71 71 71 70 70 70 70
18 18 18 16 16 18 23 26 24 25 41 51 55 57 57 59 61 62 63 64 64 61 61 61 62 64 65 65 65 65 65 66 69 68 67 67 68 69 70 70 72 71 71 71 71 70 71 70 69
Lifted_Index
0 0 0 0 -0 -0 -0 -1 -1 -2 -1 -0 -0 -1 -1 -1 -1 -0 0 0 0 -1 -3 -4 -4 -5 -5 -5 -6 -6 -5 -5 -5 -5 -5 -5 -5 -5 -4 -5 -5 -5 -5 -6 -6 -6 -7 -7 -7
-0 0 -0 -0 -1 -1 -0 -1 -2 -2 -1 -1 -1 -1 -2 -1 -1 -0 0 0 -0 -2 -3 -4 -5 -5 -5 -6 -6 -6 -6 -5 -5 -5 -5 -5 -5 -5 -5 -5 -5 -5 -5 -6 -6 -6 -6 -7 -7
0 -0 -0 -1 -1 -1 -1 -1 -2 -2 -1 -1 -2 -2 -2 -1 -1 -0 -0 -0 -1 -2 -4 -4 -5 -5 -5 -6 -6 -6 -6 -6 -6 -5 -5 -5 -5 -5 -5 -5 -5 -5 -5 -5 -6 -6 -6 -6 -6
0 -0 -1 -1 -1 -1 -1 -2 -2 -2 -2 -2 -2 -1 -1 -1 -1 -1 -1 -1 -2 -3 -4 -5 -5 -5 -5 -6 -6 -6 -6 -6 -5 -5 -5 -5 -5 -5 -5 -5 -5 -5 -5 -5 -5 -5 -5 -6 -6
-0 -1 -1 -1 -1 -1 -1 -2 -2 -2 -2 -2 -1 -1 -1 -1 -1 -1 -1 -1 -2 -3 -4 -5 -5 -5 -6 -6 -6 -6 -5 -5 -5 -5 -5 -4 -4 -4 -5 -5 -5 -5 -4 -4 -5 -5 -5 -6 -6
-1 -1 -1 -1 -1 -1 -1 -2 -2 -2 -2 -1 -1 -1 -1 -2 -2 -2 -2 -2 -2 -3 -4 -5 -5 -5 -6 -6 -6 -5 -5 -5 -5 -5 -5 -4 -4 -4 -5 -5 -5 -5 -4 -4 -4 -5 -5 -6 -6
-1 -1 -1 -1 -1 -1 -2 -2 -2 -2 -2 -1 -1 -1 -1 -2 -2 -2 -2 -2 -3 -4 -4 -5 -5 -5 -5 -6 -5 -5 -5 -5 -5 -5 -4 -4 -4 -4 -5 -5 -5 -5 -4 -4 -4 -5 -5 -5 -6
-1 -2 -1 -1 -1 -1 -2 -2 -2 -2 -2 -1 -1 -1 -1 -2 -2 -2 -2 -3 -3 -4 -4 -4 -5 -5 -5 -5 -5 -5 -5 -5 -5 -4 -4 -4 -4 -4 -4 -5 -5 -4 -4 -4 -4 -4 -5 -5 -6
-2 -2 -1 -1 -1 -1 -1 -2 -2 -2 -2 -2 -1 -1 -1 -2 -2 -2 -2 -3 -3 -3 -3 -4 -4 -4 -4 -5 -5 -5 -5 -5 -4 -4 -4 -4 -4 -4 -4 -4 -4 -4 -4 -4 -4 -4 -4 -4 -5
-2 -2 -2 -1 -1 -1 -1 -2 -2 -2 -2 -2 -2 -1 -1 -2 -2 -2 -2 -2 -2 -3 -3 -3 -3 -4 -4 -5 -5 -5 -4 -4 -4 -4 -3 -3 -3 -3 -4 -4 -4 -4 -4 -4 -4 -4 -4 -3 -3
-2 -1 -1 -1 -1 -1 -1 -1 -1 -2 -2 -2 -1 -1 -2 -2 -2 -2 -2 -2 -2 -2 -3 -3 -3 -3 -4 -4 -5 -4 -4 -3 -3 -3 -3 -3 -3 -3 -3 -4 -3 -3 -3 -3 -3 -3 -3 -3 -3
-1 -1 -0 -1 -1 -1 -1 -1 -1 -1 -2 -2 -1 -1 -2 -2 -2 -2 -2 -2 -2 -2 -2 -2 -3 -3 -3 -4 -4 -4 -3 -3 -2 -2 -2 -2 -2 -3 -3 -3 -2 -2 -2 -2 -2 -2 -2 -2 -2
-0 1 1 1 -0 -1 -1 -1 -1 -1 -2 -2 -1 -1 -1 -2 -2 -2 -2 -1 -1 -1 -1 -2 -2 -2 -3 -3 -3 -3 -3 -3 -3 -2 -2 -2 -2 -2 -2 -2 -2 -1 -1 -2 -2 -2 -2 -2 -2
1 2 2 1 -1 -1 -1 -1 -1 -2 -2 -2 -1 -1 -1 -2 -2 -2 -1 -1 -1 -1 -1 -2 -2 -2 -2 -2 -2 -2 -2 -3 -3 -3 -2 -2 -2 -2 -2 -2 -1 -1 -1 -2 -2 -2 -2 -2 -2
2 2 2 -1 -2 -2 -1 -1 -2 -2 -2 -2 -1 -1 -1 -1 -2 -2 -1 -1 -1 -1 -1 -1 -2 -2 -2 -2 -2 -2 -3 -3 -3 -3 -2 -2 -2 -2 -2 -1 -1 -1 -2 -2 -2 -2 -2 -2 -2
2 2 1 -1 -2 -2 -2 -2 -2 -2 -2 -2 -2 -1 -1 -1 -1 -1 -1 -1 -1 -1 -1 -1 -2 -2 -1 -2 -2 -3 -3 -3 -3 -3 -2 -2 -2 -2 -2 -1 -1 -1 -2 -2 -2 -2 -2 -2 -2
2 1 1 0 -1 -2 -2 -2 -2 -2 -2 -2 -2 -1 -1 -1 -1 -1 -1 -0 -1 -1 -1 -1 -1 -2 -2 -2 -2 -3 -3 -3 -3 -3 -2 -2 -3 -2 -2 -2 -2 -2 -2 -1 -2 -2 -2 -2 -2
2 1 1 1 1 -0 -1 -2 -2 -3 -3 -2 -2 -1 -1 -1 -1 -1 -1 -0 -1 -1 -1 -1 -1 -2 -2 -2 -2 -3 -3 -3 -3 -3 -2 -2 -3 -2 -2 -2 -2 -2 -2 -1 -1 -2 -1 -1 -1
3 2 2 2 3 2 -0 -2 -2 -3 -3 -3 -2 -1 -1 -1 -1 -1 -1 -1 -0 -1 -1 -1 -1 -2 -2 -2 -2 -3 -3 -3 -3 -3 -3 -3 -3 -2 -2 -2 -2 -2 -1 -1 -1 -1 -1 -1 -1
4 3 3 3 3 1 -1 -2 -2 -2 -3 -3 -2 -1 -1 -1 -1 -1 -1 -1 -0 -1 -1 -1 -1 -1 -2 -2 -2 -3 -3 -3 -3 -3 -3 -3 -3 -2 -2 -2 -2 -2 -1 -1 -1 -1 -0 -0 -0
4 4 3 3 2 0 -2 -2 -2 -2 -2 -3 -3 -2 -1 -1 -1 -1 -2 -1 -1 -0 -1 -1 -1 -1 -1 -2 -2 -3 -3 -3 -3 -3 -3 -3 -3 -2 -2 -2 -2 -1 -1 -1 -1 -0 0 1 0
4 4 4 3 3 1 -0 -1 -1 -2 -2 -3 -3 -3 -2 -1 -1 -1 -2 -2 -1 -0 -0 -1 -1 -1 -1 -2 -2 -2 -3 -3 -3 -3 -3 -3 -3 -3 -2 -2 -2 -2 -1 -1 -1 -0 1 1 1
4 5 4 4 4 3 2 1 0 -1 -2 -3 -3 -3 -3 -2 -1 -2 -2 -2 -1 -0 0 -0 -0 -0 -1 -1 -1 -2 -2 -2 -2 -3 -3 -3 -3 -3 -3 -2 -2 -2 -2 -2 -2 -1 -0 0 1
5 4 4 4 3 3 3 3 2 0 -1 -2 -3 -3 -3 -2 -2 -2 -2 -2 -2 -1 0 0 0 -0 -1 -1 -1 -1 -2 -2 -2 -2 -2 -2 -3 -3 -3 -3 -2 -2 -2 -2 -2 -2 -2 -1 -0
5 4 3 2 2 2 3 3 3 2 0 -1 -2 -3 -3 -3 -2 -2 -2 -2 -2 -1 -1 -0 -0 -0 -1 -1 -1 -1 -1 -2 -2 -2 -2 -2 -2 -3 -3 -3 -3 -3 -3 -2 -2 -2 -2 -2 -2
5 4 3 2 2 2 3 3 3 2 1 -0 -1 -2 -3 -3 -3 -2 -2 -2 -2 -2 -1 -1 -0 -0 -1 -1 -1 -1 -1 -1 -2 -2 -2 -2 -2 -3 -3 -3 -3 -3 -3 -2 -2 -3 -3 -3 -2
5 4 4 3 3 2 3 3 3 2 1 -0 -1 -2 -3 -3 -3 -2 -2 -2 -2 -2 -2 -1 -1 -0 -1 -1 -1 -1 -1 -1 -1 -2 -2 -2 -3 -3 -3 -3 -4 -3 -3 -3 -3 -3 -3 -3 -3
4 4 4 4 3 2 2 3 3 2 -0 -1 -1 -1 -2 -2 -3 -3 -2 -3 -2 -2 -2 -2 -1 -1 -0 -1 -1 -1 -1 -1 -1 -1 -2 -2 -3 -3 -3 -3 -4 -4 -3 -3 -3 -3 -3 -3 -3
5 5 4 4 3 2 2 3 4 3 1 -0 -1 -1 -1 -1 -2 -2 -3 -3 -3 -3 -3 -2 -2 -1 -1 -1 -1 -1 -1 -1 -1 -1 -1 -2 -2 -3 -3 -3 -3 -4 -4 -3 -3 -3 -3 -3 -3
6 5 4 3 3 3 3 4 5 5 3 0 -1 -1 -0 -1 -2 -2 -3 -3 -3 -3 -3 -3 -2 -2 -1 -1 -1 -1 -1 -1 -1 -1 -1 -1 -2 -2 -3 -3 -3 -3 -4 -3 -3 -3 -3 -3 -3